Flag for U.S.A. Weather past 2 weeks in Tempe, Arizona, U.S.A.

Now
90 °F

Scattered clouds.


Feels Like: 89 °F
Forecast: 90 / 107 °F
Wind: 6 mph from East

Location: Phoenix Sky Harbor International Airport

Current Time: Jul 31, 2014 at 6:45:07 AM

Latest Report: Jul 31, 2014 at 5:51 AM


Visibility: 10 mi

Pressure: 29.79 "Hg

Humidity: 33%

Dew point: 57 °F

Location of TempeLocation

Historic Weather in Tempe — Graph

°F

Tempe temperature yesterday

Maximum temperature yesterday: 110 °F (at 2:51 PM)
Minimum temperature yesterday: 92 °F (at 5:51 AM)
Average temperature yesterday: 102 °F

Past Weeks' High & Low Weather Summary

 TemperatureHumidityPressure
High114 °F (Jul 24, 1:51 PM)55% (Jul 16, 4:51 AM)30.00 "Hg (Jul 16, 4:51 AM)
Low83 °F (Jul 18, 5:51 AM)8% (Jul 17, 4:51 PM)29.62 "Hg (Jul 24, 4:51 PM)
Average98 °F23%29.80 "Hg
* Reported Jul 16 4:51 AM — Jul 31 4:51 AM, Tempe, Weather by CustomWeather, © 2014

Note: Actual official high and low records may vary slightly from our data, if they occured in-between our weather recording intervals... More about our weather records

Advertising

Tempe weather history for previous 24 hours

 ConditionsComfort  
Time TempWeatherWind HumidityBarometerVisibility
4:51 AM
Jul 31
92 °FPassing clouds.8 mph31%29.78 "Hg10 mi
3:51 AM92 °FPassing clouds.6 mph32%29.77 "Hg10 mi
2:51 AM93 °FPassing clouds.7 mph30%29.76 "Hg10 mi
1:51 AM95 °FPassing clouds.8 mph28%29.75 "Hg10 mi
12:51 AM98 °FPassing clouds.5 mph24%29.73 "Hg10 mi
11:51 PM
Jul 30
100 °FPassing clouds.6 mph19%29.75 "Hg10 mi
10:51 PM102 °FPassing clouds.7 mph17%29.73 "Hg10 mi
9:51 PM103 °FPassing clouds.7 mph17%29.73 "Hg10 mi
8:51 PM104 °FPartly cloudy.5 mph16%29.72 "Hg10 mi
7:51 PM106 °FPartly cloudy.8 mph15%29.70 "Hg10 mi
6:51 PM107 °FBroken clouds.8 mph14%29.69 "Hg10 mi
5:51 PM109 °FScattered clouds.10 mph13%29.69 "Hg10 mi
4:51 PM109 °FScattered clouds.9 mph12%29.70 "Hg10 mi
3:51 PM109 °FScattered clouds.3 mph13%29.71 "Hg10 mi
2:51 PM110 °FBroken clouds.14 mph14%29.74 "Hg10 mi
1:51 PM108 °FScattered clouds.No wind15%29.75 "Hg10 mi
12:51 PM108 °FScattered clouds.3 mph15%29.78 "Hg10 mi
11:51 AM106 °FScattered clouds.3 mph17%29.80 "Hg10 mi
10:51 AM104 °FScattered clouds.3 mph19%29.82 "Hg10 mi
9:51 AM101 °FPassing clouds.No wind21%29.82 "Hg10 mi
8:51 AM98 °FPassing clouds.No wind24%29.82 "Hg10 mi
7:51 AM95 °FPassing clouds.3 mph27%29.81 "Hg10 mi
6:51 AM93 °FPassing clouds.5 mph28%29.80 "Hg10 mi
Weather by CustomWeather, © 2014

See weather overviewHow to use our weather pages